Location: Lincoln Park Homes
(42.6431°N, 73.7603°W)
Time: 13:59:54
(UTC+00:00)

Daily predictions for brighter satellites

Satellite Brightness Start Highest point End
(mag) Time Altitude Azimuth Time Altitude Azimuth Time Altitude Azimuth
PAYLOAD B 4.2 21:49:18 10° SSE 21:54:52 73° ENE 22:00:27 10° N
ERS-2 3.7 21:54:12 10° NE 21:56:48 18° E 21:59:22 10° SE
CZ-4B DEB 4.3 21:52:10 10° SSE 21:57:40 88° WSW 22:03:11 10° NNW
Cosmos 2184 Rocket 4.3 21:54:48 10° N 22:01:13 81° W 22:07:33 10° S
Cosmos 2333 Rocket 3.6 21:56:12 10° WSW 22:01:25 37° WNW 22:06:40 10° N
Envisat 3.1 21:59:41 10° SSE 22:04:46 85° WSW 22:09:53 10° NNW
Cosmos 1743 Rocket 3.7 22:00:36 10° N 22:05:06 83° W 22:09:31 10° S
BREEZE-M TANK 3.1 21:59:34 10° WNW 22:06:28 71° SSW 22:09:45 10° ESE
USA 267 4.0 22:00:46 10° E 22:06:28 34° NNE 22:12:11 10° NW
COSMO-SKYMED 1 4.0 22:03:45 10° NE 22:06:53 19° E 22:09:59 10° SE
COSMOS 2428 3.9 22:01:45 10° SW 22:07:10 42° WNW 22:12:37 10° NNE
Lacrosse 5 rocket 2.7 22:04:41 10° S 22:07:23 19° SE 22:09:52 11° E
Cosmos 1862 3.3 22:04:18 10° N 22:08:21 89° W 22:12:21 10° S
SL-24 R/B - RUBIN 2 4.3 22:03:13 10° NNW 22:09:31 76° NE 22:15:04 10° SE
Sich 1 3.4 22:06:44 10° N 22:10:54 41° ENE 22:15:01 10° SSE
NOAA 12 4.1 22:06:47 10° SSE 22:12:03 67° ENE 22:17:22 10° N
Cosmos 2278 Rocket 2.3 22:06:51 10° NNW 22:12:34 85° WSW 22:18:14 10° SSE
Okean-O 4.3 22:10:31 10° E 22:12:49 14° ENE 22:15:08 10° NNE
GENESIS II 4.1 22:13:25 10° NNW 22:17:21 64° NE 22:21:12 10° SE
CZ-4C R/B 4.2 22:15:14 10° N 22:18:42 45° WNW 22:22:10 10° SW
AQUARIUS 4.1 22:16:32 10° SSE 22:21:00 74° ENE 22:25:30 10° N
Okean O Rocket 1.5 22:17:09 10° SSE 22:21:28 76° ENE 22:25:51 10° N
Cosmos 44 4.4 22:18:08 10° NNW 22:22:42 29° NE 22:27:21 10° ESE
Cosmos 1151 Rocket 3.9 22:19:49 10° SSE 22:23:27 27° E 22:27:04 10° NNE
H-2A R/B 3.6 22:23:09 14° E 22:24:40 15° ENE 22:27:32 10° NNE
Cosmos 1805 Rocket 3.5 22:20:27 10° N 22:24:56 80° E 22:29:22 10° S
Radarsat Rocket 4.4 22:19:57 10° S 22:25:52 72° WSW 22:32:24 10° NNW
CZ-4 R/B 2.9 22:26:58 16° ENE 22:26:58 16° ENE 22:29:06 10° NNE
YAOGAN 6 3.6 22:23:19 10° S 22:26:53 51° W 22:30:27 10° NNW
Cosmos 2219 Rocket 4.1 22:22:55 10° WSW 22:27:36 26° NW 22:32:19 10° N
Cosmos 389 Rocket 2.3 22:25:01 10° S 22:28:24 67° E 22:31:49 10° NNE
Cosmos 1666 Rocket 3.9 22:27:06 10° N 22:31:20 43° ENE 22:35:33 10° SSE
USA 281 3.8 22:26:26 10° ESE 22:32:13 35° NE 22:38:01 10° N
Cosmos 1328 Rocket 4.3 22:29:22 10° SSE 22:33:09 30° E 22:36:41 11° NNE
CZ-4B R/B 3.4 22:29:23 10° S 22:34:44 73° WSW 22:40:03 10° NNW
Cosmos 1939 Rocket 3.2 22:32:41 10° SE 22:36:17 39° ENE 22:39:56 10° N
BREEZE-M DEB (TANK) 4.3 22:34:46 10° S 22:36:58 14° SSE 22:38:20 11° ESE
ISS -2.4 22:34:51 10° W 22:37:54 31° NNW 22:39:50 18° NNE
Cosmos 2237 Rocket 2.7 22:33:03 10° SW 22:38:35 59° WNW 22:44:10 10° NNE
OE (NEXTSAT) 4.2 22:36:28 10° WSW 22:39:55 85° SSE 22:41:40 27° ENE
NOAA 11 4.1 22:34:43 10° SSE 22:40:08 79° ENE 22:45:35 10° N
Cosmos 2218 Rocket 4.2 22:35:03 10° N 22:40:58 47° ENE 22:46:50 10° SSE
CORIOLIS 4.5 22:40:46 10° S 22:46:08 70° WSW 22:51:34 10° NNW
H-2A R/B 3.6 22:46:00 10° N 22:49:46 34° WNW 22:53:36 10° SW
CREW DRAGON DEMO-1 DEB 3.3 22:47:05 10° NW 22:49:54 37° NNE 22:50:09 36° NE
CZ-4B R/B 1.2 22:47:00 10° N 22:50:03 77° WNW 22:53:08 10° SSW
FengYun 1-2 T 4.3 22:44:42 10° SSE 22:50:16 82° WSW 22:55:49 10° NNW
Cosmos 2366 rocket 4.0 22:44:13 10° N 22:50:18 53° ENE 22:56:17 10° SSE
Cosmos 1356 3.6 22:49:10 10° NNW 22:52:35 73° W 22:55:59 10° S
Cosmos 2369 Rocket 3.3 22:48:30 10° N 22:52:59 23° NE 22:53:22 23° ENE
SKYMED 2 3.5 22:50:55 10° NNE 22:55:14 62° ESE 22:59:31 10° S
Abrixas rocket 4.3 22:53:41 10° W 22:55:50 20° SW 22:57:59 10° SSE
Cosmos 1633 Rocket 2.9 22:56:33 10° N 23:00:57 75° E 23:05:17 10° SSE
EO 1 Delta rocket 4.5 22:57:13 10° NNE 23:02:37 61° E 23:09:27 10° S
X-37B 2.8 23:02:59 10° S 23:04:30 16° SSE 23:04:30 16° SSE
Cosmos 1867 3.8 23:00:14 10° SW 23:05:38 69° NW 23:09:40 19° NNE
Cosmos 1606 4.3 23:04:51 10° SW 23:08:28 36° WNW 23:12:06 10° N
SAR-Lupe-4 3.4 23:08:16 27° NNE 23:10:06 90° ENE 23:13:41 10° SSW
Cosmos 1538 Rocket 4.5 23:05:14 10° S 23:10:10 39° ESE 23:11:04 36° ENE
Cosmos 1933 3.7 23:07:04 10° SSW 23:11:04 66° W 23:15:07 10° N
CZ-2C R/B 3.0 23:08:02 10° SSE 23:13:03 54° ENE 23:17:51 10° N
Cosmos 1943 Rocket 2.2 23:11:44 10° NNW 23:17:09 51° ENE 23:19:12 34° ESE
USA 215 3.4 23:12:52 23° NE 23:17:09 72° NW 23:23:39 10° WSW
SL-24 DEB 4.1 23:16:23 10° N 23:21:10 76° E 23:25:51 10° S
Cosmos 2297 3.7 23:15:31 10° NNW 23:21:14 88° WSW 23:26:56 10° SSE
ARGOS 4.5 23:24:18 23° NNE 23:24:18 23° NNE 23:26:42 10° N
Cosmos 1782 2.6 23:21:04 10° S 23:25:00 82° E 23:25:18 73° NE
Meteor 1-4 Rocket 2.7 23:23:16 10° S 23:26:26 65° S 23:26:26 65° S
SL-16 R/B 2.5 23:21:43 10° SW 23:27:21 66° WNW 23:31:22 20° NNE
YAOGAN 1 2.9 23:30:24 48° NNE 23:30:24 48° NNE 23:33:40 10° N
ERS-2 4.0 23:27:09 10° N 23:30:22 29° WNW 23:33:34 10° SW
BREEZE-M DEB (TANK) 3.5 23:21:40 10° SW 23:31:00 57° SSE 23:31:28 53° ESE
Cosmos 1689 Rocket 3.7 23:32:45 31° SW 23:32:45 31° SW 23:34:31 10° SSW
Cosmos 2285 Rocket 4.1 23:26:42 10° NNW 23:33:06 81° WSW 23:39:27 10° SSE
PSLV R/B 4.1 23:32:06 41° N 23:33:23 70° WNW 23:37:24 10° SSW
SL-24 R/B 4.4 23:32:18 24° N 23:34:26 54° WNW 23:38:04 10° SSW
Meteor 1-14 Rocket 4.2 23:29:48 10° N 23:35:46 77° E 23:41:45 10° SSE
ATLAS CENTAUR R/B 4.4 23:14:45 10° NW 23:36:01 82° NE 23:40:45 31° SE
Helios 1A Rocket 2.9 23:36:28 73° NNW 23:36:28 73° NNW 23:40:09 10° NNW
Nadezhda 3 Rocket 4.1 23:30:07 10° SSE 23:36:14 53° E 23:37:29 46° NE
Cosmos 1470 Rocket 3.5 23:33:15 10° N 23:37:35 78° W 23:41:53 10° S
DMSP B5D1-3 4.4 23:41:18 65° ESE 23:41:18 65° ESE 23:46:09 10° S
COSMO-SKYMED 1 3.9 23:39:20 11° N 23:43:11 39° WNW 23:47:12 10° SW
Cosmos 1515 Rocket 3.6 23:39:19 10° SSW 23:43:39 77° W 23:43:50 75° NW
CZ-2D R/B 4.4 23:40:39 10° S 23:44:16 42° W 23:47:55 10° NNW
Lacrosse 5 rocket 2.3 23:42:43 10° WSW 23:45:31 39° WNW 23:45:31 39° WNW
Okean-O 3.0 23:44:24 10° S 23:48:47 63° W 23:53:11 10° NNW
USA 267 3.1 23:47:07 51° ESE 23:48:55 79° NE 23:55:28 10° NW
Cosmos 1821 Rocket 3.8 23:46:06 10° N 23:52:19 69° E 23:53:06 63° SE
MOS 1 Rocket 3.7 23:51:15 32° N 23:53:52 77° WNW 23:59:16 10° SSW
